Location: Lake Mineral Wells State Park
(32.8157°N, 98.0290°W)
Time: 06:18:11
(UTC-06:00)

Envisat - Pass Details

Date: 29 October 2019
Orbit: 764 x 766 km, 98.1° (Epoch: 13 November)

Event Time Altitude Azimuth Distance (km) Brightness Sun altitude
Rises 20:12:02 0° 184° (S) 3,215 6.3 -19.0°
Reaches altitude 10° 20:14:27 10° 191° (S) 2,293 5.6 -19.5°
Maximum altitude 20:19:12 41° 261° (W) 1,093 4.3 -20.5°
Drops below altitude 10° 20:24:00 10° 332° (NNW) 2,305 5.8 -21.5°
Sets 20:26:26 0° 339° (NNW) 3,234 6.5 -22.0°
